Wind_Speed
20 20 20 21 22 21 22 24 24 25 26 27 27 28 29 30 30 29 28 29 29 30 31 31 32 31 31 30 30 29 29 29 29 29 29 28 28 27 27 27 27 28 27
20 21 21 22 22 22 23 24 25 25 27 28 28 29 29 30 29 29 29 29 30 30 31 31 32 31 30 29 29 30 30 29 29 30 30 29 28 28 28 27 27 28 28
20 20 20 21 22 23 24 25 26 26 28 28 28 28 29 28 28 28 29 30 30 30 30 30 30 30 29 29 29 30 30 30 30 30 30 29 28 28 27 27 27 28 28
20 21 21 22 23 24 25 26 26 26 27 27 27 27 27 27 27 28 29 29 30 30 29 29 29 28 28 28 28 28 29 29 29 29 29 29 29 28 27 26 27 27 27
21 21 22 22 23 24 25 25 25 26 26 26 26 27 28 28 28 28 29 29 28 29 29 28 28 27 27 27 27 27 27 27 28 28 28 27 27 27 27 27 27 27 27
22 22 22 23 24 24 25 25 26 26 27 27 28 28 28 28 27 27 27 27 27 27 28 27 27 27 26 26 26 26 27 26 26 26 26 26 26 26 26 27 27 27 27
22 22 22 23 23 24 24 25 25 25 26 26 27 27 27 27 27 27 26 26 26 26 27 27 26 26 26 26 26 26 26 25 26 26 26 26 26 25 25 26 26 27 27
19 21 22 22 23 23 25 25 24 24 25 25 26 26 25 25 26 26 25 25 26 26 26 26 25 25 25 25 25 24 24 24 25 25 26 25 24 24 25 25 25 26 26
19 20 21 22 23 23 24 24 24 24 24 24 24 24 24 24 24 24 24 25 25 25 24 23 23 23 24 23 23 23 23 23 24 24 24 24 24 24 24 24 25 25 25
19 20 21 22 22 22 22 23 22 22 23 23 23 23 23 23 23 23 23 23 23 23 22 22 22 22 23 22 22 21 22 22 22 23 23 23 23 23 23 22 22 22 23
19 20 21 21 21 21 21 21 21 21 22 23 22 22 22 22 22 22 22 22 23 22 21 21 21 21 21 21 21 20 20 21 20 20 20 21 21 22 22 22 21 21 22
18 19 19 19 19 19 19 20 20 21 21 21 21 22 21 21 21 21 21 21 21 21 20 20 19 19 20 20 20 19 18 19 19 19 19 19 20 20 20 20 21 21 21
19 18 17 17 17 17 18 19 19 20 20 20 20 20 20 19 20 20 20 20 20 18 18 18 18 17 17 17 17 17 17 18 18 18 18 18 19 20 19 19 20 20 20
18 17 17 17 17 18 19 19 19 19 19 19 19 19 19 19 19 19 18 18 17 16 16 16 17 16 15 15 15 15 15 16 16 15 16 17 17 18 19 19 19 19 20
18 17 17 17 17 17 17 18 18 18 18 18 18 18 18 18 17 17 17 17 16 16 16 16 16 14 14 14 14 13 13 12 12 13 13 14 15 16 17 18 18 18 19
17 16 16 16 16 16 16 16 16 16 17 17 16 16 16 16 16 16 16 16 16 15 15 15 13 12 12 12 12 11 11 10 10 10 10 11 12 13 15 16 17 18 18
16 15 15 15 15 14 14 14 14 15 16 15 15 15 15 14 14 14 15 15 15 14 14 13 12 11 12 11 11 9 8 8 8 9 9 10 10 11 12 13 15 15 16
15 14 14 14 13 13 12 13 13 13 14 14 14 14 14 13 13 13 13 14 14 14 14 13 13 12 12 11 10 10 9 9 8 8 8 8 9 10 10 11 12 13 14
13 13 12 12 11 11 11 11 12 12 13 13 13 13 12 12 12 12 13 13 14 14 14 13 12 12 11 10 10 9 8 8 7 6 6 6 6 7 8 9 10 11 11
11 10 10 10 9 9 10 10 10 11 12 12 12 12 11 11 12 12 12 13 13 13 13 12 11 11 10 10 9 8 8 7 6 5 5 5 5 6 6 7 8 9 10
9 9 9 9 8 8 9 9 9 10 10 11 11 10 10 11 11 11 12 12 12 12 12 12 11 10 10 9 8 8 7 7 6 5 5 4 3 4 4 5 7 7 8
9 8 8 8 8 8 8 8 8 8 9 10 10 10 10 10 11 11 11 11 11 11 12 12 11 10 10 9 8 7 7 6 5 5 4 3 3 3 3 4 5 5 6
7 7 7 8 7 7 7 7 8 8 8 9 9 9 10 10 10 10 10 10 10 11 11 11 11 11 10 9 8 7 6 6 5 5 5 4 4 4 4 4 4 4 5
6 6 7 7 7 6 6 7 7 7 8 8 8 8 8 9 9 9 9 10 10 10 11 11 11 10 9 9 8 7 6 6 6 5 4 4 4 4 5 4 4 5 6
5 6 6 6 6 6 6 6 7 7 7 7 8 7 8 9 9 9 9 10 10 11 11 11 10 10 9 9 8 7 7 6 6 5 5 5 5 4 4 5 5 6 7
4 5 5 5 5 4 5 6 6 6 6 7 7 7 8 8 8 9 9 10 11 11 11 10 10 9 9 9 8 7 7 7 6 6 6 6 6 6 6 6 6 7 8
Wind_Direction
274 276 279 281 284 286 288 290 291 290 289 290 288 290 290 291 288 287 287 288 289 288 287 285 284 282 279 277 275 271 270 268 267 269 269 267 264 264 264 262 259 259 260
275 277 279 282 285 287 288 289 292 290 291 293 291 291 290 290 290 288 288 289 290 289 288 286 283 281 279 276 274 272 271 268 267 268 267 266 264 263 263 259 257 259 260
276 277 280 283 286 288 289 290 291 290 292 294 295 293 292 293 292 290 291 290 289 290 289 287 284 282 280 276 273 271 270 267 267 267 265 264 265 264 262 258 256 258 259
277 278 281 283 286 288 290 291 292 290 291 293 296 295 293 294 294 292 292 292 291 291 290 288 286 284 281 277 273 271 270 269 268 267 264 263 264 263 261 260 258 258 258
279 280 282 285 288 290 291 291 293 292 292 294 296 296 296 296 296 296 295 293 292 290 289 288 286 283 281 278 274 270 270 269 266 265 263 263 262 260 258 258 259 259 258
279 281 282 286 288 290 291 293 291 291 292 295 297 298 298 299 299 298 297 295 294 292 289 288 286 283 280 278 274 272 269 268 267 265 265 264 261 259 257 258 258 258 257
280 280 282 286 289 291 292 293 292 292 295 297 299 298 298 299 300 300 299 297 296 293 290 288 287 284 279 278 274 272 269 269 268 266 265 265 261 257 257 258 258 257 256
284 283 285 287 290 291 292 293 293 294 297 297 299 300 301 303 303 301 301 299 298 296 292 288 288 285 282 278 275 272 271 270 269 266 264 263 262 258 257 257 256 257 256
288 287 287 289 290 290 292 294 295 298 300 299 300 301 303 305 305 303 302 301 300 300 299 295 290 287 284 280 276 273 273 270 268 266 264 263 261 258 257 257 257 257 256
292 291 291 291 291 291 292 294 297 301 302 302 304 304 306 306 306 306 304 305 306 306 304 299 294 292 289 284 280 276 273 270 268 266 265 262 260 258 257 258 258 257 256
291 293 295 295 293 293 293 296 300 303 302 305 306 307 307 308 308 307 307 307 308 307 306 302 298 294 290 287 284 279 276 273 271 268 264 262 260 258 257 257 258 257 255
295 296 296 297 296 296 298 300 301 302 301 303 305 307 308 308 308 310 309 310 310 309 307 305 300 297 294 289 287 281 278 276 273 269 264 262 259 258 257 256 256 256 255
298 298 296 298 300 300 302 302 302 302 304 304 305 306 309 309 310 312 313 314 315 313 310 308 307 303 299 294 291 285 280 277 274 270 265 261 259 256 256 255 254 255 255
298 297 298 299 300 301 303 305 306 306 307 307 306 307 309 311 312 315 317 320 320 318 316 314 312 307 303 299 294 290 282 280 273 269 265 262 259 255 254 253 252 253 254
295 296 298 300 300 301 302 304 307 308 309 309 309 308 309 312 314 315 319 322 323 322 321 319 315 311 308 305 302 296 289 285 276 269 264 262 258 255 252 251 250 251 253
291 293 297 299 300 301 302 304 307 310 311 310 312 312 311 314 316 319 322 325 326 324 325 322 320 317 311 307 307 301 294 291 283 274 267 264 258 255 253 250 250 252 252
291 292 295 296 297 299 300 304 309 310 310 310 313 315 315 317 321 325 327 329 330 328 328 327 326 323 319 316 311 313 308 300 296 288 278 272 266 261 257 252 252 251 251
288 289 291 291 292 296 299 305 306 307 312 315 316 319 321 322 326 327 330 333 334 331 326 325 324 324 322 321 315 312 314 313 307 301 287 277 270 264 259 254 252 251 250
284 287 291 291 293 294 298 302 306 313 318 322 322 323 323 326 326 328 332 333 333 334 336 333 331 329 327 326 324 320 314 313 309 305 299 287 272 263 259 255 250 246 247
288 293 300 299 296 297 298 301 306 313 319 323 325 330 332 330 330 331 337 339 339 340 340 340 337 334 331 329 327 328 326 322 318 312 306 291 275 267 261 255 247 246 249
291 295 298 301 301 302 303 306 308 311 317 322 326 330 336 337 335 335 339 341 342 344 344 345 346 343 341 339 335 329 326 328 324 317 311 300 285 267 265 262 253 250 248
292 297 300 303 306 308 308 311 311 314 318 323 328 332 335 337 337 336 340 344 344 343 346 348 350 348 345 345 343 343 342 338 329 322 324 314 300 283 284 274 258 253 252
292 297 301 306 309 311 308 311 318 321 326 330 331 331 335 338 340 342 346 348 348 350 352 353 353 352 351 352 353 353 354 351 344 337 337 328 316 303 301 294 286 280 266
294 299 306 306 306 308 307 316 323 327 328 332 335 336 337 342 346 350 354 356 355 357 356 354 355 356 356 354 352 353 352 352 353 357 353 345 324 309 303 296 287 282 276
295 299 303 305 304 304 304 310 316 323 330 337 338 341 343 349 353 355 355 357 357 354 354 356 358 358 357 355 352 350 347 346 347 348 343 332 324 311 296 290 287 281 281
303 306 309 310 309 314 314 313 315 322 330 338 348 352 350 351 353 353 353 352 353 352 352 354 356 358 359 358 352 347 342 338 335 333 332 328 326 320 305 297 293 290 289
Height
5867 5866 5865 5864 5863 5861 5859 5858 5856 5854 5851 5849 5847 5844 5842 5840 5837 5835 5832 5830 5828 5826 5823 5820 5818 5816 5815 5813 5813 5812 5812 5812 5811 5811 5811 5811 5810 5810 5810 5811 5811 5812 5813
5863 5862 5861 5859 5858 5856 5855 5852 5850 5848 5846 5843 5840 5838 5835 5833 5830 5828 5825 5823 5820 5818 5815 5812 5810 5808 5806 5805 5804 5804 5804 5804 5804 5804 5803 5803 5804 5803 5803 5804 5805 5806 5806
5858 5857 5856 5855 5853 5852 5849 5847 5845 5843 5840 5837 5834 5831 5829 5826 5823 5821 5818 5816 5813 5810 5807 5804 5802 5800 5798 5797 5796 5796 5795 5796 5796 5796 5796 5796 5796 5796 5797 5797 5798 5799 5800
5853 5852 5851 5850 5848 5846 5844 5841 5839 5836 5834 5831 5828 5825 5822 5819 5816 5813 5810 5807 5805 5802 5799 5797 5794 5792 5790 5789 5788 5788 5788 5788 5788 5787 5788 5788 5788 5789 5790 5790 5791 5792 5793
5849 5847 5846 5844 5842 5840 5838 5836 5833 5831 5828 5825 5822 5819 5816 5812 5809 5805 5803 5800 5797 5794 5792 5789 5786 5784 5782 5781 5780 5780 5780 5780 5780 5780 5780 5780 5781 5781 5783 5784 5785 5786 5787
5843 5842 5840 5839 5837 5834 5832 5830 5827 5824 5822 5819 5815 5812 5809 5805 5802 5798 5795 5792 5789 5787 5784 5781 5779 5777 5775 5774 5773 5773 5772 5772 5772 5772 5772 5773 5774 5775 5776 5777 5778 5779 5780
5838 5837 5835 5833 5831 5828 5826 5823 5821 5818 5815 5812 5809 5805 5802 5799 5795 5792 5789 5786 5782 5779 5776 5774 5772 5770 5768 5767 5766 5765 5765 5764 5764 5765 5765 5766 5766 5767 5769 5770 5771 5772 5773
5833 5831 5829 5827 5825 5823 5820 5817 5815 5812 5809 5806 5803 5799 5796 5792 5789 5785 5782 5779 5776 5773 5770 5767 5765 5763 5761 5759 5758 5758 5757 5757 5757 5757 5758 5758 5759 5760 5762 5763 5764 5765 5766
5828 5826 5824 5822 5819 5817 5814 5811 5809 5806 5803 5800 5797 5794 5790 5786 5783 5780 5777 5773 5769 5766 5763 5760 5758 5756 5754 5753 5751 5750 5750 5750 5750 5750 5751 5752 5752 5753 5755 5756 5757 5759 5760
5823 5821 5818 5816 5813 5810 5808 5805 5803 5800 5798 5794 5791 5788 5784 5781 5778 5774 5771 5767 5764 5760 5757 5754 5752 5750 5748 5746 5744 5743 5743 5743 5742 5743 5744 5745 5745 5747 5748 5749 5751 5752 5754
5817 5815 5812 5810 5807 5805 5803 5800 5798 5795 5792 5789 5786 5783 5780 5776 5772 5769 5766 5762 5759 5755 5752 5749 5746 5744 5742 5740 5738 5737 5736 5736 5736 5736 5737 5738 5739 5740 5742 5743 5744 5746 5747
5812 5809 5807 5804 5802 5800 5798 5796 5793 5790 5788 5784 5781 5778 5775 5771 5768 5764 5761 5757 5754 5750 5747 5744 5741 5738 5736 5734 5732 5731 5730 5730 5729 5730 5730 5732 5733 5734 5736 5737 5739 5740 5741
5807 5804 5802 5800 5797 5795 5793 5791 5788 5786 5783 5780 5777 5774 5770 5767 5763 5760 5756 5753 5749 5746 5743 5740 5737 5734 5731 5729 5727 5725 5724 5724 5724 5724 5724 5726 5727 5729 5730 5732 5733 5735 5736
5802 5799 5797 5795 5793 5791 5788 5786 5784 5781 5778 5776 5772 5769 5766 5763 5759 5756 5753 5749 5745 5742 5739 5736 5733 5730 5727 5725 5723 5721 5720 5719 5719 5719 5719 5720 5721 5723 5725 5726 5728 5729 5731
5796 5794 5792 5790 5788 5786 5784 5782 5779 5777 5774 5771 5768 5765 5762 5759 5756 5752 5749 5746 5742 5739 5736 5733 5729 5727 5724 5722 5719 5717 5716 5715 5714 5714 5715 5715 5716 5718 5719 5721 5723 5724 5725
5791 5790 5787 5786 5783 5781 5779 5778 5776 5773 5770 5768 5765 5762 5759 5756 5753 5749 5746 5743 5739 5736 5733 5730 5727 5724 5721 5719 5717 5715 5714 5713 5712 5711 5711 5712 5713 5714 5715 5717 5718 5719 5721
5786 5785 5783 5781 5779 5777 5776 5774 5772 5770 5767 5764 5761 5758 5755 5753 5750 5747 5744 5741 5737 5734 5731 5728 5725 5722 5719 5717 5715 5713 5711 5710 5710 5709 5709 5709 5709 5710 5711 5712 5713 5715 5716
5782 5780 5779 5777 5776 5774 5772 5771 5769 5767 5764 5761 5758 5756 5753 5750 5748 5745 5742 5739 5736 5732 5729 5726 5723 5720 5718 5716 5714 5712 5710 5709 5708 5707 5706 5706 5707 5707 5708 5708 5709 5710 5712
5778 5776 5775 5773 5772 5771 5769 5768 5766 5764 5762 5759 5756 5753 5751 5748 5746 5743 5740 5737 5734 5731 5728 5724 5721 5719 5716 5714 5712 5710 5709 5707 5706 5705 5705 5705 5705 5705 5705 5706 5706 5707 5708
5774 5773 5772 5770 5769 5768 5766 5765 5763 5762 5759 5757 5754 5751 5749 5746 5744 5741 5738 5736 5733 5730 5727 5723 5720 5718 5715 5713 5711 5709 5707 5706 5705 5704 5704 5703 5703 5703 5703 5704 5704 5704 5705
5771 5770 5769 5768 5766 5765 5764 5762 5761 5759 5757 5755 5752 5750 5747 5745 5742 5740 5737 5734 5731 5729 5726 5723 5719 5717 5714 5712 5710 5708 5707 5705 5704 5703 5703 5702 5702 5702 5702 5702 5702 5702 5703
5768 5767 5766 5765 5764 5763 5761 5760 5759 5757 5755 5753 5750 5748 5746 5744 5741 5739 5736 5733 5730 5728 5725 5722 5719 5716 5714 5712 5710 5708 5706 5705 5704 5703 5702 5702 5701 5701 5701 5701 5701 5701 5701
5765 5765 5764 5763 5762 5760 5759 5758 5757 5755 5753 5751 5749 5747 5745 5743 5740 5738 5735 5732 5730 5727 5724 5722 5719 5716 5714 5711 5710 5708 5706 5705 5704 5703 5702 5701 5701 5700 5700 5700 5699 5699 5699
5763 5762 5761 5760 5760 5758 5757 5756 5755 5753 5752 5750 5748 5745 5743 5741 5739 5737 5734 5732 5729 5727 5724 5722 5719 5716 5714 5712 5710 5708 5707 5705 5704 5703 5702 5701 5700 5699 5699 5698 5698 5697 5697
5761 5760 5759 5758 5757 5756 5755 5754 5753 5752 5750 5748 5746 5744 5742 5740 5738 5736 5734 5732 5729 5727 5724 5722 5719 5716 5714 5712 5710 5708 5707 5705 5704 5703 5702 5700 5699 5698 5698 5697 5696 5696 5695
5759 5758 5757 5756 5755 5755 5754 5753 5751 5750 5749 5747 5745 5743 5741 5740 5738 5736 5734 5732 5729 5727 5724 5722 5719 5717 5715 5712 5710 5708 5707 5705 5704 5702 5701 5700 5698 5697 5696 5695 5694 5694 5693